Precipitable_Water
0.33 0.27 0.24 0.24 0.30 0.33 0.35 0.37 0.38 0.39 0.39 0.38 0.38 0.36 0.34 0.33 0.34 0.37 0.37 0.36 0.35 0.32 0.32 0.35 0.39 0.42 0.46 0.48 0.51 0.54 0.58 0.56 0.53 0.53 0.55 0.56 0.59 0.63 0.63 0.60 0.63 0.64 0.68 0.84 0.93 0.98 1.04 1.11 1.17 1.23 1.26 1.28 1.32 1.34 1.35 1.35 1.37 1.31 1.19 1.17 1.16 1.32 1.42 1.44 1.42 1.41 1.39 1.33 1.32 1.32 1.28 1.24 1.28 1.31 1.35 1.36 1.37 1.38 1.39 1.40 1.39 1.38 1.37 1.35 1.33 1.33
0.34 0.30 0.31 0.34 0.36 0.38 0.38 0.39 0.39 0.39 0.39 0.37 0.36 0.33 0.31 0.32 0.29 0.33 0.33 0.35 0.35 0.31 0.32 0.36 0.38 0.40 0.42 0.47 0.49 0.54 0.54 0.50 0.50 0.50 0.52 0.55 0.60 0.64 0.66 0.66 0.65 0.68 0.79 0.85 0.88 0.95 1.02 1.07 1.12 1.17 1.20 1.22 1.17 1.24 1.29 1.29 1.32 1.27 1.25 1.21 1.22 1.32 1.41 1.44 1.44 1.42 1.39 1.39 1.34 1.27 1.25 1.27 1.29 1.30 1.30 1.27 1.32 1.34 1.39 1.40 1.38 1.36 1.33 1.32 1.31 1.31
0.31 0.30 0.33 0.36 0.39 0.39 0.39 0.39 0.38 0.36 0.35 0.36 0.34 0.32 0.29 0.29 0.30 0.29 0.30 0.33 0.33 0.32 0.32 0.37 0.35 0.36 0.40 0.44 0.50 0.51 0.47 0.48 0.51 0.50 0.49 0.54 0.60 0.64 0.67 0.70 0.68 0.68 0.71 0.77 0.83 0.89 0.94 1.00 1.06 1.10 1.14 1.17 1.19 1.22 1.26 1.31 1.30 1.25 1.27 1.32 1.31 1.30 1.36 1.42 1.46 1.45 1.40 1.42 1.42 1.38 1.36 1.34 1.30 1.37 1.37 1.36 1.36 1.38 1.36 1.35 1.34 1.30 1.26 1.23 1.22 1.21
0.27 0.31 0.35 0.39 0.40 0.38 0.37 0.36 0.36 0.36 0.35 0.33 0.32 0.30 0.28 0.29 0.26 0.22 0.28 0.31 0.33 0.34 0.33 0.36 0.35 0.36 0.39 0.47 0.50 0.52 0.51 0.51 0.54 0.57 0.58 0.62 0.62 0.65 0.67 0.67 0.67 0.68 0.71 0.72 0.76 0.81 0.89 0.96 1.01 1.05 1.08 1.13 1.19 1.22 1.26 1.29 1.26 1.25 1.29 1.32 1.30 1.29 1.35 1.40 1.45 1.45 1.45 1.42 1.39 1.41 1.41 1.40 1.34 1.30 1.41 1.41 1.40 1.36 1.30 1.22 1.19 1.14 1.07 1.04 1.00 0.97
0.30 0.34 0.37 0.38 0.38 0.36 0.34 0.36 0.35 0.31 0.28 0.30 0.29 0.26 0.24 0.22 0.25 0.26 0.26 0.29 0.31 0.32 0.32 0.30 0.30 0.31 0.35 0.36 0.43 0.51 0.56 0.55 0.56 0.61 0.62 0.65 0.70 0.73 0.75 0.76 0.73 0.69 0.74 0.75 0.78 0.84 0.87 0.88 0.91 0.95 1.05 1.15 1.17 1.23 1.27 1.28 1.24 1.25 1.29 1.33 1.34 1.30 1.33 1.40 1.45 1.45 1.43 1.39 1.34 1.34 1.36 1.39 1.37 1.39 1.37 1.31 1.25 1.22 1.14 1.06 1.02 0.99 0.94 0.88 0.82 0.83
0.31 0.35 0.36 0.35 0.34 0.34 0.32 0.32 0.34 0.31 0.29 0.28 0.27 0.24 0.24 0.27 0.26 0.26 0.27 0.26 0.26 0.26 0.30 0.28 0.24 0.24 0.29 0.32 0.32 0.39 0.47 0.47 0.54 0.54 0.54 0.57 0.66 0.74 0.73 0.76 0.81 0.83 0.86 0.81 0.78 0.80 0.85 0.90 0.98 1.04 1.10 1.13 1.20 1.24 1.28 1.30 1.31 1.33 1.35 1.38 1.39 1.37 1.36 1.40 1.45 1.45 1.40 1.32 1.26 1.23 1.19 1.16 1.18 1.17 1.19 1.10 1.00 0.94 0.93 0.93 0.98 0.92 0.85 0.81 0.76 0.78
0.32 0.35 0.35 0.33 0.32 0.32 0.29 0.30 0.32 0.30 0.26 0.21 0.23 0.26 0.27 0.26 0.26 0.26 0.25 0.24 0.21 0.20 0.26 0.29 0.22 0.20 0.25 0.25 0.28 0.33 0.37 0.38 0.47 0.50 0.52 0.58 0.63 0.70 0.75 0.79 0.79 0.81 0.87 0.93 0.92 0.90 0.89 0.93 0.99 1.05 1.10 1.15 1.16 1.20 1.28 1.32 1.35 1.37 1.39 1.40 1.41 1.39 1.34 1.39 1.43 1.44 1.40 1.32 1.27 1.25 1.22 1.20 1.17 1.13 1.11 1.08 1.03 0.97 0.97 0.97 0.89 0.84 0.82 0.71 0.63 0.63
0.32 0.32 0.33 0.33 0.30 0.28 0.27 0.25 0.29 0.28 0.24 0.21 0.25 0.25 0.25 0.26 0.25 0.25 0.24 0.24 0.22 0.24 0.24 0.25 0.25 0.20 0.19 0.22 0.27 0.32 0.31 0.33 0.39 0.44 0.52 0.58 0.63 0.70 0.77 0.80 0.81 0.85 0.87 0.87 0.87 0.87 0.89 0.92 0.95 0.97 1.07 1.11 1.13 1.22 1.29 1.31 1.34 1.35 1.36 1.36 1.38 1.38 1.32 1.36 1.41 1.42 1.41 1.35 1.29 1.25 1.24 1.22 1.19 1.13 1.03 1.00 1.00 1.01 0.97 0.88 0.81 0.73 0.62 0.56 0.55 0.52
0.32 0.30 0.31 0.31 0.30 0.29 0.27 0.29 0.30 0.28 0.24 0.23 0.25 0.26 0.26 0.26 0.26 0.26 0.25 0.24 0.24 0.22 0.18 0.20 0.23 0.19 0.18 0.19 0.22 0.30 0.30 0.35 0.36 0.42 0.50 0.57 0.64 0.71 0.78 0.82 0.84 0.87 0.87 0.86 0.84 0.84 0.88 0.91 0.96 1.03 1.06 1.14 1.19 1.23 1.23 1.25 1.29 1.34 1.35 1.35 1.37 1.33 1.27 1.31 1.38 1.38 1.38 1.39 1.36 1.28 1.26 1.22 1.17 1.09 1.04 1.00 0.97 0.91 0.86 0.78 0.69 0.58 0.56 0.56 0.57 0.58
0.32 0.32 0.33 0.32 0.30 0.28 0.31 0.31 0.31 0.30 0.25 0.28 0.28 0.26 0.27 0.27 0.25 0.25 0.24 0.21 0.20 0.18 0.14 0.15 0.17 0.15 0.15 0.16 0.21 0.34 0.32 0.32 0.36 0.42 0.50 0.57 0.65 0.71 0.78 0.85 0.90 0.92 0.92 0.90 0.85 0.86 0.91 0.96 1.01 1.08 1.13 1.14 1.15 1.20 1.23 1.24 1.27 1.29 1.31 1.30 1.28 1.25 1.25 1.29 1.33 1.34 1.32 1.31 1.33 1.30 1.25 1.18 1.10 1.05 1.02 0.97 0.86 0.78 0.75 0.68 0.60 0.57 0.58 0.60 0.61 0.61
0.30 0.34 0.36 0.33 0.30 0.31 0.32 0.32 0.32 0.32 0.32 0.32 0.31 0.29 0.25 0.23 0.23 0.25 0.24 0.23 0.21 0.15 0.14 0.15 0.15 0.16 0.14 0.18 0.20 0.24 0.29 0.34 0.38 0.46 0.55 0.64 0.74 0.79 0.83 0.84 0.89 0.90 0.89 0.86 0.85 0.88 0.93 0.99 1.03 1.08 1.06 1.09 1.12 1.14 1.15 1.15 1.18 1.22 1.25 1.24 1.19 1.21 1.25 1.27 1.27 1.26 1.26 1.26 1.26 1.24 1.19 1.12 1.03 0.98 0.90 0.78 0.72 0.66 0.61 0.59 0.58 0.60 0.61 0.63 0.63 0.64
0.31 0.33 0.31 0.33 0.33 0.32 0.32 0.29 0.32 0.33 0.33 0.32 0.30 0.28 0.26 0.24 0.24 0.22 0.22 0.24 0.19 0.17 0.21 0.24 0.22 0.23 0.15 0.16 0.21 0.25 0.30 0.36 0.40 0.43 0.51 0.59 0.67 0.77 0.81 0.84 0.86 0.87 0.86 0.83 0.83 0.85 0.90 0.97 1.03 1.05 1.02 1.03 1.04 1.04 1.04 1.08 1.12 1.14 1.17 1.19 1.16 1.16 1.19 1.23 1.23 1.22 1.22 1.22 1.21 1.17 1.10 1.04 0.95 0.83 0.74 0.67 0.62 0.61 0.61 0.61 0.58 0.61 0.63 0.63 0.64 0.66
0.29 0.29 0.32 0.32 0.36 0.33 0.31 0.28 0.30 0.31 0.32 0.30 0.30 0.29 0.23 0.21 0.21 0.17 0.19 0.16 0.18 0.18 0.23 0.24 0.23 0.19 0.17 0.19 0.23 0.26 0.37 0.42 0.42 0.47 0.52 0.60 0.63 0.67 0.69 0.73 0.78 0.83 0.85 0.82 0.80 0.82 0.86 0.91 0.95 0.96 0.96 0.99 0.98 0.98 1.01 1.03 1.05 1.09 1.10 1.13 1.13 1.13 1.15 1.15 1.17 1.18 1.18 1.17 1.17 1.11 0.99 0.86 0.79 0.68 0.64 0.62 0.62 0.64 0.62 0.60 0.58 0.60 0.59 0.62 0.63 0.66
0.27 0.30 0.30 0.30 0.32 0.35 0.32 0.26 0.26 0.25 0.27 0.28 0.29 0.28 0.24 0.20 0.18 0.15 0.17 0.18 0.16 0.18 0.22 0.21 0.25 0.18 0.20 0.21 0.27 0.36 0.38 0.36 0.36 0.39 0.44 0.47 0.48 0.52 0.60 0.69 0.75 0.79 0.82 0.82 0.82 0.84 0.87 0.93 0.96 0.94 0.92 0.94 0.96 0.98 1.01 1.03 1.02 1.02 1.04 1.07 1.10 1.11 1.12 1.12 1.12 1.11 1.07 1.06 1.08 1.04 0.87 0.71 0.68 0.64 0.63 0.63 0.63 0.65 0.65 0.64 0.62 0.62 0.61 0.61 0.62 0.64
0.22 0.22 0.27 0.30 0.28 0.37 0.34 0.32 0.32 0.31 0.31 0.33 0.34 0.31 0.28 0.25 0.21 0.17 0.18 0.16 0.16 0.17 0.19 0.24 0.19 0.16 0.16 0.21 0.30 0.32 0.32 0.36 0.40 0.40 0.42 0.44 0.47 0.50 0.56 0.68 0.78 0.81 0.85 0.86 0.85 0.87 0.91 0.96 0.98 0.93 0.92 0.93 0.95 0.97 0.99 1.01 1.02 1.02 1.02 1.04 1.07 1.07 1.04 1.02 0.97 0.89 0.80 0.81 0.81 0.76 0.69 0.67 0.65 0.63 0.64 0.63 0.62 0.64 0.63 0.63 0.62 0.62 0.62 0.62 0.64 0.66
0.28 0.27 0.32 0.38 0.38 0.38 0.33 0.35 0.36 0.32 0.33 0.37 0.36 0.35 0.30 0.29 0.31 0.23 0.24 0.23 0.22 0.20 0.19 0.21 0.19 0.22 0.20 0.26 0.29 0.30 0.30 0.31 0.32 0.31 0.36 0.46 0.51 0.56 0.63 0.70 0.77 0.82 0.88 0.91 0.90 0.94 0.98 1.01 1.00 0.96 0.93 0.93 0.94 0.97 0.98 0.98 0.99 0.99 1.00 1.02 1.02 1.00 0.93 0.83 0.74 0.72 0.73 0.70 0.68 0.67 0.66 0.67 0.67 0.66 0.64 0.63 0.65 0.65 0.65 0.63 0.62 0.62 0.64 0.66 0.67 0.71
0.29 0.27 0.34 0.37 0.40 0.38 0.37 0.38 0.38 0.38 0.28 0.34 0.34 0.30 0.32 0.37 0.32 0.27 0.26 0.28 0.27 0.24 0.19 0.24 0.21 0.23 0.26 0.25 0.27 0.26 0.26 0.28 0.33 0.36 0.38 0.43 0.51 0.61 0.64 0.73 0.82 0.87 0.91 0.95 0.96 0.98 1.02 1.04 1.01 0.96 0.93 0.92 0.94 0.95 0.95 0.97 0.99 0.98 0.97 0.97 0.95 0.88 0.77 0.67 0.68 0.70 0.71 0.68 0.66 0.67 0.67 0.67 0.67 0.66 0.64 0.63 0.64 0.66 0.67 0.67 0.67 0.66 0.67 0.70 0.74 0.76
0.26 0.26 0.35 0.34 0.33 0.39 0.40 0.39 0.39 0.38 0.37 0.33 0.28 0.32 0.36 0.38 0.33 0.27 0.20 0.22 0.21 0.17 0.17 0.20 0.18 0.19 0.20 0.17 0.27 0.30 0.30 0.34 0.40 0.42 0.43 0.47 0.52 0.57 0.69 0.82 0.90 0.93 0.96 1.00 1.00 1.04 1.06 1.05 1.02 1.01 0.98 0.94 0.92 0.93 0.96 0.99 1.02 1.01 0.98 0.95 0.85 0.73 0.63 0.64 0.67 0.68 0.68 0.67 0.67 0.67 0.66 0.67 0.68 0.68 0.69 0.69 0.68 0.69 0.69 0.71 0.71 0.72 0.72 0.72 0.75 0.77
0.33 0.24 0.29 0.34 0.35 0.38 0.40 0.38 0.36 0.40 0.40 0.33 0.31 0.38 0.27 0.26 0.24 0.32 0.25 0.17 0.16 0.14 0.15 0.16 0.18 0.18 0.20 0.22 0.28 0.30 0.30 0.34 0.42 0.47 0.50 0.51 0.57 0.65 0.75 0.84 0.93 1.01 1.07 1.07 1.07 1.08 1.07 1.06 1.03 0.99 0.95 0.96 0.97 0.98 0.99 1.03 1.03 1.00 0.96 0.90 0.76 0.60 0.58 0.62 0.65 0.65 0.65 0.65 0.65 0.67 0.68 0.70 0.71 0.72 0.72 0.72 0.72 0.72 0.71 0.71 0.72 0.73 0.73 0.75 0.76 0.77
0.36 0.25 0.27 0.34 0.34 0.36 0.36 0.34 0.28 0.32 0.38 0.39 0.36 0.32 0.35 0.30 0.28 0.24 0.25 0.25 0.23 0.17 0.16 0.14 0.18 0.17 0.25 0.26 0.30 0.31 0.37 0.42 0.48 0.54 0.50 0.52 0.55 0.61 0.68 0.76 0.81 0.88 1.05 1.12 1.14 1.08 1.04 1.03 1.02 1.00 0.97 0.96 0.97 0.98 0.99 1.00 1.00 0.98 0.94 0.85 0.71 0.61 0.59 0.59 0.58 0.59 0.60 0.64 0.67 0.68 0.70 0.71 0.71 0.71 0.71 0.71 0.71 0.71 0.71 0.70 0.70 0.71 0.72 0.73 0.75 0.77
0.32 0.34 0.23 0.30 0.36 0.34 0.28 0.34 0.31 0.32 0.30 0.33 0.32 0.31 0.31 0.31 0.33 0.28 0.27 0.25 0.24 0.21 0.19 0.18 0.14 0.19 0.28 0.33 0.33 0.35 0.36 0.37 0.40 0.45 0.51 0.55 0.59 0.63 0.66 0.70 0.76 0.81 0.84 1.06 1.16 1.13 1.07 1.03 1.03 1.02 1.02 1.00 1.02 1.03 1.02 0.98 0.95 0.95 0.92 0.82 0.71 0.64 0.63 0.60 0.60 0.63 0.65 0.68 0.69 0.69 0.68 0.69 0.70 0.70 0.71 0.70 0.70 0.69 0.69 0.70 0.72 0.73 0.74 0.77 0.76 0.78
0.33 0.33 0.26 0.29 0.28 0.27 0.29 0.35 0.36 0.35 0.35 0.32 0.31 0.29 0.30 0.24 0.22 0.21 0.20 0.30 0.29 0.26 0.22 0.21 0.17 0.20 0.32 0.37 0.39 0.40 0.40 0.40 0.46 0.54 0.53 0.59 0.62 0.64 0.63 0.65 0.69 0.68 0.67 0.67 0.75 0.87 0.95 1.01 1.03 1.01 1.01 1.00 0.99 1.00 0.99 0.96 0.94 0.91 0.87 0.81 0.77 0.72 0.67 0.66 0.69 0.72 0.73 0.73 0.73 0.72 0.71 0.71 0.72 0.72 0.72 0.71 0.72 0.73 0.74 0.75 0.75 0.76 0.78 0.78 0.79 0.80
0.39 0.37 0.33 0.27 0.28 0.29 0.32 0.35 0.38 0.37 0.34 0.32 0.31 0.30 0.32 0.31 0.30 0.26 0.20 0.23 0.29 0.29 0.30 0.27 0.21 0.17 0.33 0.36 0.40 0.42 0.42 0.42 0.44 0.45 0.47 0.47 0.52 0.60 0.63 0.68 0.72 0.75 0.79 0.82 0.82 0.85 0.89 0.95 0.97 0.98 0.97 0.97 0.97 0.98 0.98 0.95 0.92 0.89 0.89 0.86 0.82 0.80 0.77 0.76 0.76 0.79 0.80 0.79 0.78 0.78 0.78 0.76 0.73 0.75 0.76 0.78 0.78 0.78 0.78 0.78 0.80 0.82 0.80 0.79 0.79 0.79
0.41 0.32 0.26 0.27 0.32 0.34 0.37 0.39 0.39 0.39 0.36 0.32 0.34 0.35 0.32 0.29 0.32 0.30 0.29 0.30 0.27 0.26 0.26 0.27 0.23 0.21 0.32 0.38 0.40 0.43 0.43 0.43 0.44 0.46 0.45 0.45 0.46 0.47 0.49 0.60 0.69 0.71 0.74 0.77 0.79 0.82 0.92 0.98 1.02 1.04 1.04 1.07 1.06 1.05 1.04 1.05 1.01 0.92 0.88 0.87 0.86 0.83 0.83 0.85 0.85 0.83 0.82 0.83 0.83 0.82 0.80 0.78 0.79 0.81 0.83 0.82 0.81 0.80 0.81 0.82 0.81 0.82 0.80 0.79 0.78 0.75
0.30 0.33 0.31 0.23 0.22 0.24 0.28 0.32 0.33 0.37 0.36 0.32 0.30 0.32 0.34 0.33 0.33 0.34 0.33 0.35 0.26 0.27 0.29 0.27 0.20 0.21 0.30 0.37 0.41 0.41 0.41 0.40 0.40 0.43 0.47 0.46 0.47 0.48 0.50 0.54 0.60 0.65 0.67 0.68 0.72 0.77 0.80 0.84 0.86 0.89 0.95 0.98 1.00 1.01 0.99 0.94 0.94 0.96 0.93 0.90 0.87 0.86 0.86 0.86 0.88 0.87 0.85 0.84 0.83 0.84 0.83 0.84 0.86 0.85 0.83 0.82 0.81 0.80 0.80 0.81 0.81 0.81 0.80 0.78 0.76 0.74
0.29 0.28 0.26 0.20 0.17 0.15 0.15 0.17 0.19 0.22 0.25 0.30 0.32 0.32 0.33 0.32 0.32 0.31 0.26 0.29 0.25 0.27 0.29 0.25 0.23 0.28 0.33 0.35 0.35 0.36 0.36 0.36 0.36 0.38 0.43 0.46 0.46 0.46 0.47 0.48 0.50 0.54 0.60 0.66 0.72 0.72 0.67 0.68 0.74 0.81 0.87 0.91 0.95 0.96 0.95 1.02 1.05 1.04 1.03 0.99 0.96 0.92 0.91 0.90 0.91 0.90 0.88 0.88 0.89 0.89 0.88 0.87 0.86 0.83 0.81 0.80 0.80 0.80 0.80 0.80 0.80 0.79 0.79 0.77 0.73 0.72
0.24 0.26 0.25 0.25 0.23 0.21 0.25 0.28 0.33 0.35 0.30 0.26 0.27 0.28 0.28 0.29 0.29 0.32 0.31 0.26 0.24 0.28 0.25 0.24 0.25 0.26 0.26 0.28 0.30 0.31 0.32 0.32 0.31 0.33 0.36 0.38 0.40 0.45 0.48 0.48 0.49 0.49 0.53 0.61 0.66 0.70 0.74 0.76 0.77 0.78 0.77 0.77 0.80 0.85 0.88 0.90 0.91 0.91 0.92 0.94 0.95 0.95 0.93 0.92 0.91 0.94 0.92 0.91 0.92 0.90 0.88 0.86 0.84 0.82 0.80 0.79 0.79 0.79 0.79 0.79 0.78 0.78 0.76 0.75 0.73 0.70
0.20 0.17 0.19 0.20 0.21 0.24 0.27 0.28 0.31 0.31 0.27 0.27 0.26 0.25 0.29 0.29 0.29 0.26 0.21 0.18 0.26 0.23 0.16 0.18 0.23 0.22 0.21 0.22 0.24 0.27 0.28 0.27 0.28 0.30 0.33 0.36 0.40 0.43 0.47 0.51 0.54 0.56 0.59 0.63 0.65 0.66 0.68 0.71 0.74 0.75 0.77 0.78 0.81 0.84 0.84 0.85 0.85 0.85 0.89 0.93 0.96 0.96 0.93 0.93 0.93 0.93 0.93 0.93 0.91 0.88 0.86 0.82 0.79 0.78 0.77 0.78 0.78 0.78 0.78 0.77 0.77 0.75 0.75 0.74 0.71 0.69
0.16 0.13 0.18 0.18 0.17 0.19 0.20 0.20 0.21 0.19 0.19 0.18 0.18 0.18 0.19 0.20 0.18 0.15 0.16 0.18 0.18 0.14 0.11 0.12 0.13 0.13 0.15 0.18 0.20 0.22 0.22 0.24 0.29 0.34 0.37 0.39 0.41 0.43 0.44 0.47 0.51 0.55 0.58 0.60 0.62 0.64 0.66 0.67 0.71 0.73 0.75 0.75 0.76 0.77 0.78 0.79 0.80 0.84 0.87 0.88 0.87 0.90 0.91 0.94 0.90 0.88 0.89 0.87 0.83 0.79 0.79 0.78 0.78 0.78 0.78 0.78 0.78 0.77 0.76 0.75 0.74 0.74 0.72 0.70 0.69 0.69
0.17 0.14 0.18 0.16 0.12 0.10 0.10 0.11 0.12 0.11 0.11 0.10 0.09 0.09 0.10 0.10 0.09 0.09 0.10 0.10 0.09 0.09 0.11 0.11 0.12 0.12 0.11 0.13 0.19 0.23 0.27 0.29 0.32 0.35 0.35 0.33 0.35 0.37 0.39 0.42 0.45 0.49 0.50 0.55 0.58 0.60 0.61 0.63 0.66 0.68 0.69 0.70 0.69 0.69 0.71 0.73 0.77 0.80 0.81 0.82 0.84 0.85 0.86 0.85 0.81 0.80 0.79 0.78 0.77 0.77 0.77 0.78 0.78 0.77 0.77 0.76 0.74 0.73 0.73 0.73 0.71 0.70 0.68 0.67 0.67 0.65
0.15 0.12 0.13 0.11 0.09 0.08 0.09 0.10 0.10 0.10 0.10 0.08 0.08 0.09 0.10 0.10 0.09 0.09 0.09 0.09 0.10 0.11 0.12 0.12 0.11 0.10 0.13 0.28 0.28 0.31 0.32 0.32 0.29 0.26 0.25 0.27 0.30 0.31 0.32 0.34 0.37 0.39 0.42 0.45 0.48 0.52 0.57 0.59 0.61 0.64 0.67 0.68 0.70 0.70 0.69 0.71 0.74 0.76 0.75 0.75 0.77 0.77 0.78 0.77 0.73 0.72 0.72 0.73 0.75 0.76 0.77 0.77 0.78 0.78 0.74 0.72 0.71 0.70 0.68 0.67 0.67 0.67 0.68 0.67 0.63 0.58
0.17 0.13 0.13 0.11 0.09 0.08 0.09 0.10 0.11 0.11 0.10 0.10 0.09 0.12 0.12 0.09 0.08 0.09 0.09 0.12 0.12 0.12 0.13 0.14 0.13 0.15 0.25 0.30 0.34 0.34 0.33 0.31 0.29 0.30 0.30 0.30 0.32 0.33 0.33 0.35 0.38 0.41 0.43 0.46 0.51 0.55 0.58 0.62 0.66 0.67 0.68 0.70 0.71 0.72 0.71 0.70 0.72 0.71 0.73 0.76 0.75 0.74 0.74 0.72 0.70 0.70 0.71 0.72 0.73 0.73 0.73 0.75 0.75 0.73 0.71 0.69 0.68 0.67 0.65 0.66 0.66 0.66 0.65 0.61 0.57 0.56
0.14 0.11 0.10 0.11 0.10 0.09 0.10 0.13 0.14 0.15 0.14 0.10 0.09 0.12 0.10 0.13 0.14 0.15 0.17 0.19 0.22 0.22 0.17 0.15 0.17 0.31 0.33 0.36 0.29 0.29 0.35 0.33 0.32 0.33 0.32 0.33 0.36 0.38 0.38 0.39 0.42 0.46 0.50 0.55 0.55 0.58 0.61 0.64 0.68 0.71 0.73 0.76 0.75 0.73 0.75 0.79 0.79 0.79 0.81 0.79 0.78 0.74 0.70 0.70 0.71 0.71 0.72 0.74 0.75 0.74 0.73 0.76 0.75 0.73 0.70 0.69 0.69 0.68 0.66 0.65 0.64 0.62 0.59 0.57 0.57 0.55
0.15 0.14 0.12 0.14 0.11 0.09 0.10 0.13 0.18 0.15 0.09 0.08 0.15 0.13 0.17 0.16 0.16 0.16 0.17 0.24 0.28 0.28 0.27 0.33 0.33 0.36 0.37 0.35 0.33 0.35 0.40 0.39 0.40 0.44 0.47 0.43 0.40 0.40 0.42 0.43 0.45 0.46 0.48 0.51 0.55 0.58 0.62 0.65 0.67 0.69 0.71 0.72 0.77 0.82 0.86 0.83 0.82 0.81 0.80 0.77 0.74 0.71 0.70 0.70 0.72 0.73 0.75 0.77 0.76 0.75 0.75 0.74 0.73 0.71 0.70 0.68 0.66 0.65 0.63 0.62 0.59 0.57 0.55 0.54 0.53 0.52
0.15 0.16 0.14 0.16 0.14 0.11 0.12 0.14 0.12 0.09 0.08 0.11 0.18 0.21 0.22 0.22 0.21 0.20 0.23 0.30 0.32 0.33 0.35 0.35 0.37 0.38 0.40 0.43 0.44 0.47 0.53 0.52 0.52 0.51 0.52 0.54 0.52 0.50 0.49 0.49 0.50 0.50 0.50 0.52 0.53 0.56 0.59 0.63 0.65 0.67 0.70 0.72 0.74 0.75 0.75 0.74 0.75 0.74 0.73 0.72 0.70 0.70 0.68 0.71 0.73 0.76 0.77 0.74 0.74 0.73 0.74 0.74 0.71 0.68 0.65 0.63 0.61 0.60 0.60 0.57 0.53 0.50 0.50 0.50 0.49 0.48
0.16 0.16 0.17 0.16 0.16 0.17 0.14 0.13 0.09 0.08 0.11 0.17 0.19 0.22 0.27 0.25 0.28 0.25 0.24 0.33 0.35 0.35 0.37 0.36 0.39 0.42 0.43 0.43 0.46 0.50 0.55 0.55 0.55 0.56 0.57 0.57 0.58 0.55 0.54 0.53 0.54 0.53 0.52 0.53 0.53 0.56 0.58 0.62 0.64 0.66 0.68 0.71 0.72 0.74 0.74 0.73 0.74 0.71 0.69 0.70 0.68 0.71 0.76 0.79 0.76 0.71 0.73 0.73 0.72 0.72 0.71 0.68 0.65 0.62 0.60 0.58 0.57 0.56 0.54 0.51 0.48 0.47 0.48 0.48 0.48 0.49
0.19 0.19 0.19 0.15 0.18 0.13 0.13 0.13 0.12 0.16 0.15 0.14 0.16 0.23 0.26 0.23 0.24 0.24 0.20 0.28 0.36 0.39 0.39 0.37 0.40 0.43 0.44 0.45 0.48 0.50 0.54 0.56 0.51 0.51 0.56 0.55 0.55 0.56 0.54 0.56 0.58 0.58 0.58 0.59 0.60 0.61 0.65 0.66 0.67 0.70 0.70 0.70 0.70 0.69 0.70 0.73 0.75 0.75 0.73 0.73 0.79 0.80 0.75 0.72 0.72 0.71 0.69 0.68 0.67 0.66 0.65 0.61 0.58 0.55 0.54 0.54 0.52 0.49 0.47 0.46 0.46 0.47 0.48 0.46 0.47 0.47
0.17 0.15 0.17 0.15 0.15 0.16 0.13 0.13 0.13 0.13 0.10 0.11 0.22 0.31 0.37 0.38 0.36 0.37 0.36 0.32 0.42 0.41 0.44 0.40 0.38 0.40 0.41 0.41 0.44 0.46 0.47 0.42 0.38 0.42 0.51 0.56 0.58 0.59 0.60 0.62 0.64 0.64 0.64 0.65 0.69 0.70 0.71 0.72 0.72 0.73 0.72 0.72 0.73 0.75 0.76 0.76 0.77 0.81 0.80 0.77 0.76 0.73 0.71 0.69 0.67 0.67 0.65 0.63 0.62 0.61 0.59 0.56 0.54 0.51 0.50 0.49 0.47 0.45 0.45 0.46 0.46 0.46 0.48 0.46 0.46 0.46
0.18 0.19 0.18 0.16 0.15 0.16 0.15 0.12 0.11 0.09 0.11 0.19 0.21 0.27 0.32 0.36 0.35 0.38 0.31 0.25 0.41 0.45 0.43 0.42 0.39 0.40 0.40 0.39 0.42 0.43 0.39 0.34 0.36 0.43 0.52 0.56 0.59 0.60 0.57 0.57 0.59 0.61 0.62 0.63 0.64 0.66 0.70 0.73 0.73 0.75 0.77 0.76 0.75 0.78 0.79 0.79 0.76 0.73 0.71 0.70 0.69 0.68 0.65 0.64 0.63 0.62 0.60 0.58 0.57 0.55 0.54 0.52 0.49 0.47 0.46 0.45 0.45 0.45 0.45 0.46 0.46 0.48 0.50 0.49 0.49 0.47
0.13 0.13 0.13 0.13 0.12 0.13 0.12 0.12 0.11 0.14 0.15 0.27 0.30 0.32 0.34 0.35 0.37 0.33 0.19 0.22 0.36 0.45 0.44 0.43 0.39 0.40 0.43 0.44 0.43 0.42 0.36 0.31 0.33 0.41 0.51 0.54 0.55 0.57 0.55 0.55 0.55 0.57 0.59 0.62 0.64 0.65 0.65 0.66 0.66 0.66 0.66 0.65 0.66 0.70 0.70 0.69 0.68 0.66 0.64 0.62 0.62 0.60 0.59 0.60 0.59 0.58 0.56 0.55 0.54 0.52 0.51 0.49 0.47 0.46 0.46 0.46 0.46 0.47 0.47 0.48 0.48 0.48 0.49 0.49 0.48 0.46
0.16 0.17 0.18 0.14 0.14 0.14 0.14 0.14 0.16 0.17 0.31 0.32 0.31 0.35 0.34 0.34 0.32 0.21 0.17 0.27 0.36 0.40 0.44 0.43 0.42 0.41 0.44 0.41 0.40 0.36 0.39 0.40 0.42 0.46 0.49 0.51 0.51 0.51 0.54 0.56 0.56 0.56 0.57 0.60 0.61 0.63 0.62 0.61 0.60 0.58 0.58 0.60 0.62 0.63 0.64 0.65 0.63 0.61 0.61 0.60 0.58 0.57 0.58 0.58 0.58 0.56 0.55 0.54 0.52 0.50 0.49 0.48 0.47 0.47 0.48 0.49 0.48 0.48 0.47 0.48 0.47 0.48 0.47 0.46 0.46 0.47
0.18 0.20 0.18 0.19 0.16 0.15 0.17 0.16 0.16 0.18 0.33 0.35 0.36 0.37 0.32 0.24 0.16 0.16 0.28 0.37 0.38 0.38 0.45 0.46 0.44 0.43 0.42 0.40 0.39 0.38 0.39 0.41 0.43 0.45 0.46 0.45 0.45 0.47 0.48 0.51 0.52 0.53 0.55 0.58 0.60 0.59 0.58 0.58 0.58 0.59 0.59 0.59 0.60 0.61 0.62 0.61 0.60 0.59 0.60 0.58 0.56 0.57 0.60 0.58 0.57 0.55 0.53 0.51 0.48 0.46 0.45 0.46 0.48 0.50 0.50 0.49 0.48 0.46 0.46 0.47 0.48 0.47 0.46 0.47 0.47 0.47
0.17 0.15 0.15 0.14 0.17 0.18 0.17 0.16 0.15 0.12 0.31 0.36 0.30 0.28 0.27 0.18 0.20 0.28 0.33 0.36 0.40 0.40 0.41 0.44 0.44 0.43 0.42 0.37 0.38 0.38 0.37 0.37 0.37 0.38 0.42 0.45 0.45 0.46 0.47 0.48 0.49 0.49 0.49 0.50 0.52 0.54 0.54 0.53 0.52 0.53 0.54 0.57 0.58 0.59 0.59 0.58 0.56 0.56 0.56 0.54 0.55 0.57 0.57 0.55 0.52 0.50 0.47 0.44 0.43 0.43 0.44 0.46 0.47 0.47 0.48 0.47 0.47 0.46 0.45 0.46 0.46 0.47 0.49 0.49 0.49 0.48
0.22 0.14 0.15 0.16 0.20 0.14 0.14 0.12 0.13 0.23 0.27 0.35 0.26 0.20 0.23 0.26 0.31 0.34 0.33 0.31 0.34 0.32 0.33 0.35 0.38 0.37 0.36 0.35 0.33 0.34 0.35 0.34 0.33 0.33 0.35 0.40 0.44 0.47 0.49 0.50 0.52 0.53 0.51 0.52 0.52 0.51 0.51 0.49 0.49 0.50 0.52 0.53 0.54 0.54 0.53 0.52 0.49 0.48 0.47 0.47 0.50 0.49 0.48 0.47 0.46 0.44 0.42 0.41 0.40 0.40 0.42 0.44 0.46 0.47 0.47 0.47 0.47 0.47 0.45 0.46 0.47 0.49 0.49 0.49 0.48 0.48
0.21 0.17 0.20 0.14 0.20 0.18 0.16 0.17 0.21 0.26 0.34 0.36 0.29 0.27 0.31 0.32 0.35 0.34 0.32 0.30 0.28 0.29 0.33 0.32 0.30 0.32 0.32 0.31 0.31 0.32 0.33 0.34 0.34 0.34 0.34 0.37 0.41 0.44 0.47 0.50 0.52 0.53 0.52 0.50 0.50 0.51 0.51 0.49 0.49 0.51 0.52 0.54 0.54 0.53 0.53 0.51 0.48 0.46 0.44 0.46 0.48 0.47 0.46 0.45 0.44 0.42 0.40 0.39 0.39 0.40 0.43 0.45 0.47 0.47 0.47 0.47 0.47 0.46 0.46 0.46 0.47 0.46 0.48 0.48 0.49 0.50
0.22 0.23 0.23 0.19 0.17 0.23 0.24 0.22 0.22 0.24 0.25 0.25 0.27 0.30 0.28 0.29 0.32 0.32 0.30 0.28 0.28 0.29 0.29 0.28 0.29 0.29 0.30 0.30 0.29 0.31 0.32 0.34 0.35 0.35 0.37 0.40 0.41 0.43 0.46 0.49 0.51 0.51 0.50 0.48 0.47 0.49 0.50 0.51 0.52 0.52 0.52 0.53 0.54 0.52 0.51 0.49 0.47 0.43 0.43 0.46 0.46 0.46 0.45 0.44 0.43 0.41 0.39 0.39 0.41 0.42 0.44 0.45 0.46 0.46 0.46 0.47 0.48 0.47 0.47 0.46 0.46 0.46 0.47 0.47 0.50 0.55
0.20 0.21 0.19 0.16 0.20 0.17 0.12 0.18 0.20 0.21 0.23 0.23 0.22 0.23 0.26 0.25 0.24 0.25 0.24 0.25 0.25 0.24 0.25 0.26 0.27 0.29 0.29 0.30 0.29 0.29 0.32 0.35 0.36 0.37 0.41 0.43 0.44 0.45 0.46 0.47 0.47 0.48 0.49 0.49 0.51 0.52 0.53 0.54 0.53 0.54 0.53 0.51 0.52 0.50 0.49 0.47 0.46 0.46 0.46 0.45 0.46 0.46 0.46 0.45 0.43 0.41 0.41 0.42 0.43 0.44 0.45 0.45 0.44 0.45 0.47 0.47 0.47 0.47 0.47 0.48 0.48 0.47 0.48 0.52 0.56 0.58
0.15 0.24 0.17 0.17 0.17 0.15 0.13 0.14 0.15 0.17 0.18 0.20 0.20 0.18 0.17 0.19 0.22 0.24 0.24 0.24 0.24 0.25 0.26 0.27 0.29 0.29 0.31 0.30 0.31 0.32 0.33 0.36 0.37 0.39 0.42 0.45 0.46 0.46 0.47 0.48 0.48 0.49 0.52 0.54 0.55 0.55 0.55 0.56 0.58 0.58 0.55 0.52 0.51 0.50 0.48 0.47 0.46 0.47 0.47 0.47 0.48 0.48 0.47 0.45 0.44 0.43 0.43 0.43 0.43 0.43 0.44 0.44 0.45 0.46 0.45 0.46 0.47 0.47 0.48 0.49 0.49 0.50 0.53 0.57 0.59 0.58
0.20 0.20 0.14 0.19 0.17 0.17 0.17 0.17 0.17 0.19 0.19 0.19 0.20 0.21 0.22 0.22 0.22 0.22 0.23 0.23 0.23 0.24 0.26 0.29 0.31 0.31 0.32 0.33 0.34 0.36 0.36 0.37 0.39 0.41 0.42 0.42 0.44 0.47 0.50 0.54 0.52 0.51 0.52 0.55 0.57 0.57 0.57 0.60 0.60 0.58 0.55 0.51 0.51 0.50 0.49 0.48 0.48 0.49 0.49 0.49 0.49 0.49 0.46 0.44 0.44 0.44 0.43 0.42 0.42 0.43 0.44 0.45 0.46 0.46 0.46 0.46 0.47 0.48 0.49 0.50 0.52 0.56 0.60 0.65 0.66 0.64
0.19 0.14 0.17 0.18 0.15 0.14 0.13 0.14 0.18 0.15 0.14 0.16 0.17 0.18 0.20 0.22 0.24 0.25 0.25 0.24 0.24 0.25 0.28 0.29 0.30 0.33 0.36 0.37 0.37 0.38 0.38 0.39 0.41 0.43 0.42 0.43 0.45 0.47 0.49 0.52 0.56 0.55 0.53 0.56 0.59 0.58 0.59 0.60 0.59 0.56 0.53 0.51 0.51 0.50 0.49 0.48 0.50 0.51 0.51 0.50 0.49 0.48 0.46 0.45 0.43 0.42 0.41 0.41 0.42 0.42 0.43 0.44 0.46 0.47 0.47 0.46 0.46 0.47 0.51 0.57 0.61 0.63 0.62 0.62 0.66 0.65
0.17 0.16 0.19 0.17 0.15 0.14 0.17 0.19 0.20 0.21 0.21 0.20 0.19 0.20 0.21 0.24 0.26 0.27 0.26 0.26 0.27 0.28 0.31 0.32 0.32 0.33 0.34 0.37 0.40 0.40 0.40 0.42 0.44 0.46 0.45 0.45 0.47 0.50 0.52 0.53 0.56 0.59 0.59 0.61 0.59 0.58 0.58 0.58 0.58 0.56 0.53 0.50 0.47 0.46 0.48 0.49 0.48 0.48 0.48 0.48 0.48 0.48 0.46 0.44 0.42 0.40 0.39 0.40 0.41 0.43 0.44 0.46 0.47 0.48 0.46 0.46 0.47 0.50 0.51 0.54 0.61 0.66 0.66 0.65 0.64 0.63
Wind_Speed
5 5 5 7 7 8 8 8 9 9 9 9 9 9 9 8 8 9 8 7 6 9 12 11 11 11 11 10 10 11 10 9 9 10 9 8 8 8 8 8 8 9 10 10 10 11 12 12 12 13 13 13 13 13 13 14 14 13 13 14 14 14 14 14 14 14 14 14 13 13 13 13 13 12 12 12 12 11 11 11 11 11 12 12 12 13
5 6 7 8 8 9 8 9 10 10 11 11 10 10 10 9 10 10 9 9 8 9 11 9 9 11 11 11 10 10 10 11 11 10 10 9 10 10 9 9 9 8 9 9 10 10 11 12 12 13 13 13 13 14 14 15 15 14 14 15 15 16 16 15 16 16 16 16 15 15 15 14 14 14 14 13 13 13 13 13 13 13 13 13 14 14
6 8 9 9 8 9 9 9 10 12 12 11 10 9 10 10 10 10 9 9 9 9 10 9 10 12 12 12 11 11 12 13 12 12 11 11 11 11 10 9 8 8 8 9 9 10 11 12 12 13 13 14 14 15 15 16 16 16 15 16 17 17 17 17 17 17 17 17 17 17 17 16 16 15 15 14 14 14 14 14 14 14 14 15 15 15
8 9 10 11 10 10 11 11 11 11 10 10 10 10 12 11 9 10 10 10 10 9 8 9 10 13 13 12 13 14 14 13 13 13 13 12 12 11 11 10 9 8 8 9 9 10 10 11 12 12 13 14 15 15 16 16 17 17 17 17 18 18 18 18 18 18 18 18 17 18 18 17 16 15 15 15 15 15 15 15 15 15 15 15 15 15
11 12 12 11 11 11 13 13 11 10 10 10 11 10 12 11 9 11 11 11 11 10 9 8 10 13 12 12 14 15 14 13 13 14 14 14 14 12 11 11 11 9 9 9 9 10 10 11 12 12 13 14 15 16 17 17 17 18 18 18 19 19 19 19 19 19 18 18 18 17 17 17 17 16 16 16 16 16 16 16 17 17 16 16 16 16
13 15 14 12 13 13 13 13 11 10 11 11 11 10 10 10 10 11 12 11 11 12 12 10 11 14 13 12 14 14 14 15 14 15 16 15 15 14 14 13 12 11 11 10 10 10 11 11 11 12 13 14 15 16 16 17 17 18 18 19 19 19 19 20 20 19 19 18 18 18 17 17 17 17 17 17 17 17 17 18 18 18 17 17 17 17
12 13 12 12 12 12 11 11 11 11 10 10 11 10 8 9 10 11 12 10 10 13 14 12 12 14 15 15 15 15 16 17 16 16 17 17 16 16 16 15 14 13 12 11 11 11 11 11 11 12 13 14 15 16 16 17 17 17 18 19 20 20 20 21 21 20 20 19 19 19 19 19 18 18 18 18 18 18 19 19 19 19 19 19 19 19
11 11 10 9 8 8 9 10 12 11 9 12 12 10 9 10 12 13 12 11 12 14 15 13 13 15 16 17 17 16 17 17 17 17 17 17 17 17 17 17 16 15 13 12 12 11 11 12 12 13 14 15 15 16 16 17 17 17 18 19 20 20 20 21 21 21 20 20 20 20 20 20 20 20 19 19 19 20 20 20 20 20 20 20 20 20
10 11 11 10 9 8 9 11 12 10 10 13 13 11 11 12 13 14 14 14 14 14 16 15 14 15 17 17 16 14 15 17 18 18 17 17 18 18 18 18 17 15 14 13 13 13 13 13 14 14 15 15 16 16 17 17 17 17 18 19 20 20 20 21 21 21 21 21 21 21 21 21 21 21 20 20 21 21 21 21 21 21 21 21 21 22
11 12 12 11 12 11 11 12 11 10 11 12 12 13 13 13 14 13 13 14 14 13 16 16 14 14 16 16 14 14 15 17 19 19 19 18 18 19 19 19 18 17 16 15 15 14 15 15 15 15 16 16 17 17 17 17 17 17 17 18 20 20 20 21 22 22 22 22 22 22 22 22 22 22 22 22 22 22 22 22 22 22 22 23 23 23
12 13 12 12 13 12 12 13 12 12 13 12 11 13 13 13 13 13 12 13 12 13 16 16 14 13 15 16 14 14 16 17 18 19 19 19 19 19 20 20 20 19 18 17 17 16 16 16 16 16 16 17 17 17 16 16 16 17 18 19 19 20 21 22 22 22 22 22 22 23 23 23 24 24 23 23 23 23 23 23 24 24 24 24 25 25
10 11 11 12 13 12 12 13 13 12 12 11 10 11 12 13 13 12 13 12 11 13 14 15 14 13 15 16 15 15 16 17 16 16 17 18 18 18 19 20 20 21 20 19 19 18 18 17 17 17 17 17 17 17 16 16 16 17 18 19 20 21 22 23 23 23 23 23 24 24 24 24 25 24 24 24 24 24 24 24 25 25 25 26 26 27
11 11 10 11 12 12 12 13 13 13 12 11 11 10 10 11 11 11 12 12 12 13 14 13 13 13 15 17 16 16 16 15 15 15 15 16 18 19 20 21 21 22 22 21 21 20 19 18 18 17 17 16 16 17 18 17 17 18 18 19 20 21 22 23 24 24 24 24 24 25 25 25 25 24 24 24 25 25 25 25 26 26 27 27 28 29
12 11 10 9 9 10 10 10 11 12 11 10 10 9 9 9 9 11 12 12 13 15 15 15 15 15 16 17 16 16 17 17 17 18 19 20 22 23 23 23 23 23 23 22 21 20 20 19 19 18 18 17 17 18 19 18 18 18 19 19 20 21 22 23 24 25 24 24 24 25 25 25 24 25 25 25 26 26 26 27 27 28 28 29 30 31
10 10 9 8 7 8 7 7 9 10 9 10 10 9 9 10 10 12 12 13 15 17 17 17 16 15 15 16 16 17 20 20 21 22 23 24 25 24 24 24 23 23 23 22 22 21 21 20 19 19 19 18 18 18 19 19 19 19 20 20 21 21 22 23 24 24 24 24 24 24 25 25 26 26 26 27 27 28 28 29 29 29 30 31 32 33
9 11 11 9 8 8 8 8 8 8 8 10 9 8 11 12 11 13 14 15 16 17 18 17 17 18 17 19 20 20 22 23 23 24 23 23 24 22 21 22 23 23 23 23 23 22 22 21 20 20 19 19 19 19 20 21 21 21 22 22 22 22 23 23 24 24 24 24 25 25 26 26 27 27 28 28 29 29 30 30 31 31 32 33 34 35
11 13 13 11 9 9 9 10 9 8 9 10 10 11 13 13 12 13 16 16 15 17 18 17 18 20 19 20 21 20 21 21 20 20 20 19 19 18 19 21 23 24 25 25 24 24 23 22 21 21 21 21 21 21 22 23 23 23 23 24 24 23 24 24 25 25 25 25 26 26 27 28 28 29 29 30 30 31 31 32 33 33 34 35 36 37
11 14 14 12 12 12 12 12 11 9 9 10 10 13 14 13 12 13 15 16 15 17 19 18 19 20 19 19 19 18 18 19 18 17 17 17 16 16 17 19 22 24 25 26 25 24 24 23 23 23 23 23 23 23 23 24 24 25 25 25 25 24 25 25 26 26 26 26 27 27 28 29 29 30 31 31 32 32 33 34 35 35 36 37 38 38
12 14 16 14 14 15 15 13 13 13 11 10 12 14 13 13 15 14 14 16 16 17 18 19 19 19 18 18 17 17 18 18 18 17 16 16 16 16 16 18 20 23 24 25 25 24 24 24 24 24 24 25 25 25 25 25 26 26 27 26 26 26 26 26 26 26 27 27 28 28 29 30 31 31 32 33 33 34 34 35 36 37 38 39 39 40
13 14 16 16 16 17 16 14 15 16 16 15 16 16 15 15 17 17 17 17 17 18 18 19 18 17 16 15 14 15 17 18 18 18 17 16 16 16 17 18 20 22 24 25 25 24 24 25 25 26 26 26 26 27 26 26 27 27 27 27 27 27 27 26 27 27 28 28 29 29 30 31 31 32 33 34 34 35 36 37 38 38 39 40 40 40
15 14 17 19 18 17 16 15 15 16 18 18 18 18 18 19 19 19 18 17 16 17 17 18 18 16 15 14 12 14 17 18 18 18 18 19 18 17 18 19 20 22 23 25 26 26 26 26 27 27 28 28 28 28 27 27 28 27 27 27 27 27 27 28 28 29 29 30 30 31 31 32 32 33 34 35 36 37 38 38 39 39 40 40 40 40
17 17 18 19 18 17 18 18 17 17 18 18 18 18 18 19 17 17 18 18 17 17 18 19 20 20 17 15 14 15 17 18 18 17 18 20 20 20 19 20 21 23 24 27 29 29 29 29 29 30 29 29 30 29 29 29 28 28 28 28 28 28 29 30 31 31 31 31 32 32 33 33 34 34 35 36 37 38 38 39 39 39 40 40 40 41
18 18 18 19 20 19 21 21 18 18 18 18 18 17 16 16 15 15 18 20 20 21 21 20 22 22 19 16 16 18 18 19 19 20 20 22 23 23 23 23 23 24 26 28 29 29 29 30 31 31 30 30 30 30 30 30 29 28 28 28 29 30 31 32 32 32 32 32 33 33 34 34 35 35 36 37 38 38 39 39 39 39 40 40 41 42
19 19 20 22 22 22 23 22 20 19 18 18 19 18 17 18 18 18 20 21 22 22 21 20 23 25 23 21 20 22 22 22 22 23 23 24 26 26 25 25 25 27 28 29 30 29 28 29 30 31 31 31 30 30 31 32 32 31 30 30 31 32 33 33 33 33 33 33 34 34 35 36 36 37 37 38 38 38 39 39 39 40 40 41 42 43
20 20 20 22 22 22 22 22 21 21 19 20 21 21 20 20 20 21 21 20 21 22 21 21 25 29 28 27 26 27 26 26 26 25 24 25 26 26 26 26 27 28 28 29 29 29 29 30 31 32 32 32 32 32 33 33 33 32 31 31 32 33 33 33 33 33 34 34 35 36 36 37 37 38 38 38 38 38 39 39 40 41 42 42 43 44
21 21 21 21 22 22 22 21 22 23 22 23 24 24 24 23 22 22 22 22 23 24 25 26 28 31 32 31 30 30 29 30 31 30 28 26 26 27 29 29 29 30 29 29 29 30 31 32 31 31 31 32 32 33 34 34 33 32 32 32 33 33 33 34 35 36 36 36 37 37 37 37 37 37 37 38 38 39 39 40 41 42 43 44 45 45
22 23 23 23 23 23 23 23 23 24 24 25 26 26 26 26 24 24 24 26 26 27 30 30 30 32 35 35 32 32 32 33 33 33 32 32 31 31 31 31 32 32 31 30 30 31 32 32 32 32 32 33 34 35 35 36 36 36 36 36 35 35 36 37 38 38 38 38 38 37 37 37 37 37 37 38 39 40 40 41 42 43 44 45 45 45
22 24 25 25 25 25 24 25 25 26 26 28 29 29 28 27 27 27 27 29 28 28 33 34 32 33 37 38 35 34 34 34 34 34 34 35 34 33 32 32 32 31 30 30 30 32 33 33 34 34 35 36 36 37 37 37 38 38 38 38 38 38 39 39 38 38 38 38 37 37 36 36 36 37 38 39 40 41 42 43 44 45 45 45 45 46
23 26 26 25 27 28 28 28 28 28 30 31 32 32 31 30 31 31 30 30 29 30 35 37 37 37 38 38 37 36 35 35 35 35 35 34 34 32 32 33 33 32 32 32 33 34 34 35 36 36 37 38 38 38 38 38 38 38 39 39 39 39 39 39 38 38 37 37 36 36 36 36 37 37 39 40 41 42 43 44 45 45 45 45 46 47
24 26 26 27 31 32 31 30 30 31 32 34 35 34 32 32 34 33 32 33 33 34 35 36 37 38 36 35 36 36 36 35 34 34 34 35 35 34 34 34 34 34 34 35 36 37 37 37 38 38 38 38 37 37 37 37 38 38 38 39 39 39 39 38 38 37 37 37 37 37 37 37 38 38 39 40 41 42 43 44 45 45 45 46 47 47
25 27 28 28 32 34 32 29 30 31 32 36 37 34 32 34 35 34 33 34 34 34 34 35 36 36 33 33 35 35 35 34 34 35 36 36 36 36 36 36 35 35 35 35 36 37 37 37 37 37 37 37 37 36 36 37 37 36 37 37 37 37 37 37 37 37 37 37 37 37 38 38 39 40 40 41 42 43 43 44 45 46 47 47 47 47
26 28 28 27 30 34 32 28 30 32 33 37 38 33 31 33 33 33 32 32 31 32 33 34 34 34 33 34 35 35 34 34 34 35 36 36 36 36 36 36 35 34 33 33 33 34 34 34 34 34 34 34 35 35 34 34 34 33 34 34 34 35 36 36 36 36 37 37 38 38 39 39 40 40 41 42 42 43 44 45 46 47 47 47 47 46
27 28 29 27 29 34 32 28 29 30 31 34 33 29 28 30 31 32 31 29 30 31 31 32 32 33 35 35 35 35 35 34 33 34 34 34 34 33 32 32 32 32 32 32 32 31 32 33 32 32 32 32 32 32 31 30 30 31 32 33 34 35 35 35 35 36 37 37 37 38 38 38 38 39 40 41 42 44 45 46 46 47 47 47 47 46
27 27 28 27 28 33 32 29 28 28 30 32 30 27 29 30 31 32 30 29 31 31 31 32 33 34 35 35 35 35 34 33 32 32 31 32 31 30 30 30 30 30 30 30 30 30 30 31 31 31 30 30 31 30 30 30 30 31 32 32 33 34 34 34 35 35 34 34 34 35 36 37 38 39 40 42 44 46 47 47 47 47 47 47 47 46
28 27 27 27 28 31 32 29 28 30 32 31 30 30 31 32 32 32 29 29 32 33 32 33 33 34 34 34 34 33 32 30 30 30 30 30 30 29 29 29 29 29 29 30 30 29 29 29 30 30 29 29 30 31 31 32 32 32 33 33 34 35 35 34 33 31 31 32 34 35 36 38 40 41 43 45 47 48 48 48 48 47 47 47 47 47
27 27 27 28 29 29 30 29 30 32 35 34 32 32 32 32 31 31 29 30 32 32 32 33 33 33 33 33 33 32 30 29 29 30 30 30 30 29 29 29 30 31 31 31 31 30 30 29 29 29 28 28 30 31 32 32 32 33 34 35 35 35 33 31 30 31 32 34 35 37 39 40 42 44 46 47 48 48 48 48 47 47 47 47 47 46
27 27 27 29 29 29 30 31 32 35 37 36 33 31 31 31 31 30 30 31 32 32 32 32 32 32 33 33 34 32 31 30 30 31 32 32 31 31 31 31 31 31 31 32 31 31 31 30 30 30 30 31 32 33 33 33 34 34 34 34 33 30 29 30 31 33 35 36 38 39 41 43 44 46 47 47 48 47 47 47 46 46 46 46 45 45
27 28 28 28 29 29 30 31 31 32 34 33 32 31 31 32 32 30 29 30 31 33 32 31 31 33 33 34 34 33 33 32 32 33 34 33 33 32 31 31 31 31 31 31 31 30 30 30 30 30 31 32 32 32 32 32 32 31 30 29 29 29 31 33 34 36 37 38 40 41 43 44 46 46 47 47 47 47 46 45 45 45 44 44 44 45
27 27 26 27 28 29 29 29 29 30 31 32 32 33 33 33 32 30 29 30 31 32 32 31 31 33 33 34 34 33 32 32 33 34 34 33 33 33 33 33 33 33 32 32 32 31 31 30 29 29 29 28 27 28 28 27 27 27 27 28 30 32 34 35 37 38 39 40 41 42 44 45 46 46 46 46 45 45 44 44 44 44 44 44 45 46
27 26 26 27 29 29 29 29 29 30 30 30 31 33 33 33 31 28 28 29 29 31 32 31 32 33 33 33 33 32 31 32 34 35 34 34 35 35 35 35 34 34 34 33 33 32 32 31 30 30 30 29 28 28 28 28 28 29 31 32 34 35 36 37 39 40 40 41 42 43 44 45 45 44 45 44 44 44 44 44 44 43 44 45 46 46
26 25 25 27 28 28 28 29 29 28 28 29 31 32 32 31 28 27 29 30 31 32 33 32 33 33 33 34 34 33 34 35 36 36 36 36 37 37 37 37 36 36 35 35 35 34 33 32 32 31 31 32 32 32 32 33 33 34 35 35 36 37 38 38 39 40 41 42 43 44 44 44 44 44 44 43 43 43 43 43 43 44 45 45 45 45
25 25 25 25 26 26 26 27 27 27 27 28 29 30 29 28 27 29 31 32 32 34 35 35 35 35 35 36 36 37 37 38 39 40 40 39 39 39 39 38 38 38 37 37 36 36 35 34 34 34 34 34 35 36 37 37 38 38 39 39 39 39 39 39 40 41 42 43 44 45 45 44 44 43 42 42 43 43 43 43 43 44 44 44 43 43
25 25 25 25 26 26 26 26 26 26 27 27 28 29 28 27 29 31 32 33 34 35 36 36 36 36 37 38 39 40 40 40 41 41 41 41 41 40 40 40 40 40 39 38 37 37 37 37 37 38 38 39 39 40 40 41 42 42 43 43 42 42 41 42 42 42 43 44 44 44 43 43 42 41 41 42 42 42 42 42 43 43 42 41 41 41
27 26 26 27 26 26 26 27 26 26 28 27 27 29 30 30 31 33 33 35 36 36 37 37 38 39 39 40 42 43 43 43 43 43 43 43 42 41 41 41 41 41 41 40 39 39 39 40 40 41 42 42 42 43 43 43 43 44 44 43 43 42 42 43 43 43 43 43 43 42 41 41 41 41 41 41 40 40 40 41 41 40 39 39 39 39
26 26 27 28 28 28 29 30 30 30 30 30 30 32 33 34 34 34 35 37 39 39 39 40 41 42 43 43 45 45 45 45 46 45 45 45 44 43 43 43 43 43 42 41 41 41 41 41 42 42 42 43 43 43 44 44 44 44 43 42 41 41 41 42 42 42 42 42 41 40 40 40 40 40 39 39 39 39 39 39 38 38 37 37 37 37
28 28 29 31 32 32 33 34 33 33 34 35 36 35 36 37 38 38 39 41 41 42 42 43 44 45 45 45 46 47 47 47 47 47 47 46 45 44 43 43 44 43 42 41 41 40 40 40 41 41 41 42 42 43 43 43 42 42 41 40 39 39 39 39 39 40 40 39 38 38 38 37 37 37 37 37 37 38 37 36 36 35 35 35 35 35
30 30 31 33 34 35 36 36 35 36 38 39 40 40 40 40 41 41 42 43 44 45 46 45 46 46 46 47 47 47 47 47 46 46 45 43 43 43 42 42 42 41 40 39 38 38 38 38 38 38 38 38 39 39 39 38 38 38 37 37 36 36 36 36 36 36 36 36 35 34 34 34 35 35 35 36 35 35 34 34 34 34 34 33 33 34
32 32 34 35 35 36 38 39 39 40 41 40 40 41 42 41 41 42 43 44 45 45 45 45 45 45 46 46 45 45 45 44 43 43 42 41 41 41 40 40 39 37 36 36 34 34 34 33 33 33 34 34 34 34 33 33 33 33 33 32 32 32 32 32 32 32 31 31 31 31 32 33 34 34 33 33 33 32 32 32 32 32 31 31 32 33
34 36 36 36 37 38 39 40 40 40 41 40 39 40 41 41 42 43 44 44 44 43 43 43 43 43 42 42 42 42 42 41 41 40 40 39 39 38 37 37 36 34 33 32 31 30 30 29 29 29 29 29 29 29 28 28 28 28 27 27 27 27 27 28 28 27 28 29 29 30 31 32 32 32 31 31 31 30 30 30 30 30 30 31 32 33
36 38 37 37 38 39 38 37 37 38 39 40 41 42 42 41 42 42 43 42 42 41 40 40 41 40 38 38 38 38 38 38 37 37 37 36 36 35 34 34 33 31 29 27 27 27 27 26 25 25 24 24 24 24 24 25 25 24 23 23 23 24 24 25 25 26 27 28 29 30 31 31 31 30 29 29 28 28 29 29 28 29 30 30 31 32
37 38 37 37 38 39 39 39 39 38 39 41 42 43 42 41 40 40 40 39 39 38 37 37 37 36 35 34 34 34 34 34 33 33 33 32 32 32 31 29 27 26 24 23 22 22 22 21 21 21 22 22 22 22 22 22 22 21 20 21 22 23 23 24 25 26 27 28 29 29 30 30 29 27 27 26 26 26 27 27 28 28 29 29 30 32
Wind_Direction
205 218 227 210 213 225 226 223 232 252 265 271 277 275 271 274 278 270 261 266 273 279 274 258 249 249 252 254 248 245 248 253 255 253 252 251 250 249 249 249 246 246 249 247 243 241 241 240 240 240 238 236 236 238 240 239 240 241 241 243 243 240 240 242 243 245 247 250 252 255 257 260 261 262 266 269 271 272 272 274 277 279 283 286 290 294
205 218 226 215 221 235 242 244 250 262 268 270 270 268 273 276 277 270 260 271 284 282 278 261 247 252 251 251 249 244 249 259 257 252 249 250 252 252 250 250 249 255 257 252 248 245 243 242 242 242 240 238 237 238 240 241 243 244 245 246 245 243 243 244 245 246 248 251 253 256 258 260 262 264 266 267 268 269 271 273 276 278 282 285 289 292
231 231 234 232 235 246 257 255 255 262 263 263 262 266 281 281 275 267 259 278 291 283 280 269 253 257 260 259 257 248 251 259 253 245 244 248 254 254 251 251 249 254 257 252 249 247 244 243 243 243 242 241 240 241 243 244 246 248 248 249 248 245 245 247 247 248 251 254 255 257 259 261 264 265 265 265 266 267 270 273 274 277 281 285 288 291
234 237 244 250 252 256 262 260 258 264 263 261 265 272 280 280 272 263 266 282 287 286 287 276 262 266 272 271 266 259 258 263 258 249 248 249 253 252 248 247 243 249 257 253 250 249 247 245 245 246 246 244 245 246 247 249 251 252 251 250 249 247 248 249 249 250 253 256 257 257 259 261 262 262 262 264 265 266 268 271 273 277 280 284 288 291
239 250 259 263 262 258 260 261 259 261 267 268 268 270 274 276 267 261 271 282 280 280 281 282 279 274 274 271 269 269 268 269 262 254 255 258 257 254 250 249 245 250 258 253 249 250 249 249 250 251 249 247 247 249 251 254 255 255 253 250 249 248 249 250 251 252 254 255 256 256 257 258 258 259 260 261 263 264 266 269 273 277 279 283 287 290
253 260 265 267 265 260 256 256 251 252 266 272 267 266 265 265 267 270 278 286 286 281 274 282 285 275 277 275 269 273 272 270 266 259 259 261 261 257 255 254 251 254 261 256 251 251 251 254 256 256 253 249 249 252 255 257 259 257 254 251 249 249 249 251 252 253 254 254 254 254 254 254 255 257 259 259 259 261 264 268 272 275 279 282 286 289
260 262 264 264 265 258 250 249 250 252 262 266 264 266 265 264 270 276 283 286 284 278 274 275 273 271 280 277 268 269 268 267 269 267 263 261 260 258 255 254 252 254 260 258 253 251 253 257 260 261 258 255 254 256 258 259 260 259 256 252 250 249 250 251 252 253 253 253 254 254 254 254 255 256 257 258 259 261 264 268 271 275 279 282 284 286
260 268 267 268 271 260 251 252 256 259 258 259 262 266 277 280 276 275 279 279 274 277 279 276 269 270 276 277 273 270 267 268 269 270 268 262 260 258 254 253 252 252 253 253 251 249 253 260 263 263 262 261 260 260 261 261 260 258 256 253 250 250 250 251 252 252 252 254 255 255 256 257 256 256 256 257 258 262 265 268 271 275 278 280 281 284
258 262 263 271 278 267 258 258 259 262 259 258 261 264 273 277 275 275 277 277 278 280 281 279 274 272 274 278 282 276 269 269 267 267 269 265 262 259 254 251 251 250 249 251 250 250 257 264 265 266 266 266 265 265 264 262 261 259 256 254 251 249 250 250 251 251 253 255 256 257 257 257 258 257 257 258 260 262 265 268 271 273 275 278 280 282
258 254 257 267 272 262 257 258 256 258 261 262 267 271 274 275 276 278 276 278 283 279 275 277 274 271 274 278 283 281 273 270 270 271 272 268 265 261 255 252 251 250 250 252 254 256 262 266 267 269 270 269 269 268 266 262 260 258 256 254 251 250 250 251 251 253 255 257 257 258 257 256 257 258 259 261 262 263 265 268 270 272 274 277 279 282
262 261 262 260 260 257 258 261 255 250 256 266 279 284 283 281 281 280 277 281 285 278 275 276 271 269 277 279 277 278 277 276 276 276 275 272 268 263 257 252 249 250 251 254 258 261 266 268 269 270 269 269 270 268 264 261 258 257 257 255 252 251 251 252 254 255 256 258 260 259 257 256 257 258 260 262 263 264 266 268 270 272 274 277 279 282
271 268 267 259 257 260 263 267 265 259 260 269 281 287 286 284 284 283 284 285 281 276 278 282 281 271 272 279 280 280 282 280 277 274 272 270 266 261 257 254 251 250 252 255 259 263 266 269 269 268 266 267 267 263 260 259 259 258 258 257 254 252 253 254 256 256 257 260 261 260 259 258 258 259 261 261 262 264 266 268 271 272 274 277 280 282
275 264 268 269 268 270 267 267 273 273 269 270 275 281 283 284 285 281 282 280 273 273 278 289 294 279 271 279 282 282 283 277 273 273 270 266 262 259 256 255 254 253 253 256 259 261 264 267 268 265 262 262 263 261 258 259 261 261 260 259 257 255 255 256 257 258 259 261 261 261 260 260 260 260 262 262 263 265 267 269 271 272 275 277 280 282
276 273 279 276 274 279 272 263 268 268 262 261 265 269 273 275 279 277 277 278 276 276 280 286 290 283 281 284 279 278 281 276 273 272 267 262 260 259 257 256 256 256 256 256 257 258 261 264 265 261 258 259 261 261 260 259 261 263 263 262 260 258 258 258 259 261 261 262 262 261 261 261 261 262 263 264 265 266 268 270 271 273 275 277 280 282
267 271 272 265 265 279 278 257 257 260 258 257 256 262 270 268 268 272 272 273 276 279 282 284 283 278 280 284 278 277 283 284 283 279 273 268 264 262 261 258 258 258 257 256 256 256 259 261 262 259 257 258 260 260 260 260 261 263 265 264 262 261 261 260 260 261 262 263 263 262 262 263 263 264 265 266 267 268 269 271 272 274 276 278 281 283
257 257 256 255 259 271 276 265 267 279 274 266 268 276 277 268 266 273 274 272 275 280 282 280 278 275 279 284 285 286 288 289 289 285 279 274 271 270 267 260 259 259 257 255 254 255 258 260 260 258 257 258 259 259 260 260 262 265 267 267 265 264 262 260 261 262 263 264 264 264 264 264 265 266 267 268 268 269 270 272 273 275 277 279 282 283
259 258 259 264 267 272 273 265 269 285 278 275 283 283 276 270 271 277 279 279 280 281 281 279 279 285 289 290 293 296 296 294 291 290 287 279 272 270 266 259 256 257 256 255 254 255 257 260 259 258 257 258 259 259 260 262 264 267 269 268 267 265 262 261 262 263 264 264 265 265 266 266 267 268 268 269 270 271 272 274 275 277 279 281 283 284
264 263 267 270 269 273 274 264 258 265 271 279 285 283 283 283 279 277 279 283 284 280 281 282 282 287 291 292 297 303 302 300 297 295 296 290 279 273 268 262 258 258 257 254 253 255 258 260 260 259 258 258 258 259 260 263 266 269 271 269 266 264 262 261 262 263 263 264 265 266 267 268 269 270 270 271 272 273 274 276 277 279 280 282 284 285
273 270 269 269 267 272 277 270 262 262 264 267 272 279 287 286 282 284 283 282 283 281 282 284 284 286 286 287 297 302 300 302 301 300 299 295 291 285 277 271 269 269 265 259 255 256 260 262 261 260 260 259 258 259 261 265 269 271 271 269 267 265 264 263 263 263 264 265 266 267 268 269 270 271 272 272 273 274 276 277 279 280 281 283 284 285
276 272 270 271 270 272 275 275 273 272 269 267 270 278 282 279 278 283 282 279 280 281 283 287 288 287 283 281 293 301 302 303 299 298 298 291 287 284 278 274 273 274 273 267 261 260 263 264 262 262 262 260 259 260 263 267 271 272 271 269 268 266 266 265 265 265 266 267 267 269 270 270 271 271 272 272 273 274 276 277 278 280 282 283 283 284
275 273 272 276 277 274 272 272 274 276 275 274 276 280 283 283 281 281 280 279 279 279 282 286 285 283 280 281 292 301 305 306 298 293 294 291 287 285 283 279 274 272 272 269 266 266 268 267 265 265 265 263 262 263 266 269 271 272 271 269 267 265 264 265 266 268 268 269 270 271 272 272 272 272 273 273 274 275 276 277 279 280 281 281 282 283
273 274 274 278 280 275 271 269 270 273 273 272 275 278 281 283 284 282 280 280 282 281 280 282 281 280 278 280 290 296 298 304 304 296 294 295 292 287 283 277 272 271 270 268 268 269 269 268 266 266 266 265 265 265 266 268 269 270 270 267 265 264 264 266 268 269 269 270 271 272 273 273 273 273 274 274 275 276 277 278 279 280 280 281 282 282
270 272 274 276 276 275 274 274 274 275 274 271 271 273 276 280 283 281 277 279 282 281 280 281 278 276 276 280 289 294 293 296 299 296 295 296 293 288 283 278 275 274 272 270 271 271 270 269 268 268 267 266 265 265 266 268 268 269 269 266 265 266 267 267 268 269 270 271 273 274 274 273 273 274 275 275 276 276 277 278 279 280 280 281 282 283
273 273 276 277 276 278 279 278 278 278 276 274 271 271 273 277 280 277 275 277 278 277 278 279 275 272 275 283 290 294 294 293 294 293 291 292 292 289 286 282 277 275 273 273 274 274 272 271 271 271 269 268 267 267 268 270 269 270 268 266 266 268 268 268 269 269 271 272 273 275 275 274 275 275 276 276 277 277 277 278 280 280 281 282 284 285
276 274 279 282 280 280 281 280 280 279 275 273 272 273 273 276 279 278 277 279 276 273 274 274 273 274 277 282 287 291 293 293 292 289 286 286 288 287 285 283 280 278 277 275 274 273 272 271 272 272 270 269 270 271 272 274 273 272 269 267 267 268 267 268 270 270 271 272 273 275 275 275 276 276 276 277 277 277 278 280 281 282 282 284 286 286
273 272 276 278 277 277 278 278 278 278 277 276 276 277 278 279 281 280 280 280 276 275 277 274 275 280 281 282 285 288 290 291 290 288 285 283 283 282 282 281 280 280 279 276 274 274 274 273 273 272 271 271 273 274 276 275 273 272 270 269 268 267 267 269 271 271 271 272 273 274 274 274 276 277 277 277 277 278 279 280 282 283 284 286 287 287
272 274 274 271 270 271 273 274 276 279 279 277 277 278 278 280 281 279 279 279 277 279 280 275 277 283 284 285 286 288 288 288 287 286 285 284 283 281 280 279 278 278 278 277 276 276 277 276 274 272 271 270 271 272 273 272 270 270 270 270 269 268 270 272 273 272 271 271 272 272 272 274 276 277 277 278 278 280 281 282 283 285 286 287 287 287
274 276 274 272 271 270 271 274 277 279 278 277 278 278 277 279 279 277 277 276 277 280 280 278 281 284 284 285 286 286 286 286 285 284 285 285 284 282 281 280 279 278 277 276 276 277 277 276 274 272 271 271 270 270 271 270 270 270 270 270 270 270 272 273 273 272 271 271 272 272 273 275 277 278 278 279 280 281 282 284 285 286 287 287 287 287
272 272 272 274 275 274 273 275 277 278 277 277 278 278 279 279 278 277 276 275 275 276 277 280 282 282 282 284 285 285 286 285 284 284 284 285 285 284 283 281 280 278 277 276 276 275 275 273 272 271 271 271 270 271 271 270 270 269 268 269 270 271 271 272 272 271 271 271 272 273 275 276 278 279 280 281 282 283 284 285 286 286 287 287 287 288
272 271 273 276 277 276 275 276 277 278 278 277 277 278 280 280 278 278 279 278 277 276 276 279 280 279 280 284 285 285 286 286 284 284 286 287 286 286 286 284 282 280 278 276 275 275 274 272 271 271 271 271 271 270 270 270 269 268 268 268 269 270 271 272 271 270 271 272 273 275 276 277 278 280 282 283 284 285 286 286 286 286 287 287 288 289
275 273 274 278 279 277 276 276 277 279 279 278 278 280 281 281 280 281 281 280 280 279 278 279 279 278 281 284 284 285 288 288 287 288 289 288 287 287 286 285 283 282 280 277 276 275 275 274 273 273 273 272 271 270 270 270 269 268 269 269 270 270 271 272 272 272 272 273 275 276 278 279 280 282 284 285 286 286 287 287 286 287 288 289 289 289
276 274 276 278 277 276 276 278 279 280 280 279 280 281 281 280 281 281 280 281 281 280 280 281 281 281 283 284 285 287 289 289 288 289 289 288 288 288 287 285 285 284 283 281 281 280 278 277 276 276 275 274 273 273 272 270 269 269 270 271 271 271 272 273 273 273 274 275 276 278 279 281 282 283 285 286 286 287 288 288 288 288 288 289 289 288
274 274 276 275 274 275 277 279 279 281 280 279 278 279 280 280 281 281 282 283 282 281 281 281 281 282 284 286 288 290 290 288 287 288 289 288 288 288 288 287 287 286 286 286 285 283 280 278 276 275 275 275 274 274 274 272 271 271 272 273 274 275 275 275 274 275 276 276 278 279 280 282 284 285 285 286 287 288 289 289 289 289 289 289 289 288
274 273 274 273 272 274 277 279 279 277 276 275 276 280 282 281 281 282 283 284 285 284 283 282 282 284 286 287 288 289 288 288 289 291 292 292 291 290 290 290 288 288 288 287 286 284 282 280 277 276 275 274 273 272 273 273 273 273 274 276 278 278 277 276 275 275 275 276 278 280 280 282 285 285 286 287 289 289 290 290 290 290 289 289 289 288
275 274 274 274 273 275 279 280 277 272 272 277 280 282 282 281 280 282 283 284 285 285 284 284 284 285 286 286 287 288 287 288 292 295 296 296 294 292 292 291 290 290 290 289 288 286 284 282 281 280 279 277 275 273 273 273 273 273 275 277 279 278 277 274 271 272 274 277 280 281 282 284 286 286 287 289 290 290 290 290 290 290 289 289 289 289
272 273 274 274 274 276 278 276 273 274 278 281 283 283 283 283 283 283 282 282 283 283 283 283 283 284 286 287 288 289 286 286 292 295 295 294 293 292 292 291 290 291 290 289 288 286 285 284 282 282 280 279 278 278 276 274 273 273 274 276 276 275 273 270 270 274 278 281 282 284 285 286 287 288 289 290 290 290 290 290 290 290 290 290 290 289
270 272 274 274 273 274 273 272 275 280 282 282 282 283 282 280 280 280 278 278 280 280 280 281 282 284 285 286 288 288 283 284 288 290 290 291 290 289 289 289 289 289 290 289 288 286 285 284 281 280 280 279 279 277 275 273 272 273 274 274 273 271 271 273 275 278 281 284 285 287 287 288 289 290 290 290 291 291 291 291 290 290 291 291 290 289
269 270 272 272 272 272 272 273 277 279 279 279 281 281 280 279 277 276 275 276 278 279 279 280 281 283 283 284 286 285 283 283 284 284 286 288 287 286 286 285 284 285 286 287 286 286 285 283 280 279 279 279 277 275 274 273 273 273 273 272 272 273 276 279 280 281 283 286 287 288 289 289 290 290 290 291 291 291 291 291 291 291 291 291 290 290
272 271 271 271 272 273 271 271 274 275 276 278 279 279 280 281 279 277 276 276 277 278 279 280 282 283 283 283 284 284 284 284 283 282 284 284 284 284 283 283 283 283 283 282 281 281 280 280 279 278 279 280 280 278 276 275 274 275 275 275 277 279 281 282 282 283 285 286 287 289 290 290 291 291 291 292 292 292 292 292 292 292 291 290 290 290
275 274 271 270 271 272 271 271 273 275 277 279 279 279 281 282 282 280 278 277 277 278 279 280 282 284 283 284 285 284 283 283 282 282 283 282 282 282 282 282 283 282 282 282 281 280 279 277 277 277 278 279 279 278 277 276 276 277 278 279 281 282 282 281 282 283 285 286 288 289 290 291 292 292 292 292 292 292 292 293 293 292 291 290 290 290
276 274 271 270 271 271 270 271 274 275 276 277 278 280 283 285 282 279 277 278 281 281 280 281 283 284 284 285 285 283 282 282 282 282 283 282 282 283 282 282 282 282 282 281 281 280 279 278 278 277 277 277 276 276 276 276 277 277 278 279 280 281 281 282 283 284 285 287 289 290 291 292 293 293 292 291 291 292 293 293 292 291 290 290 290 290
277 276 274 272 272 272 271 272 275 276 275 275 278 282 286 285 280 277 278 281 283 283 283 283 284 284 285 285 285 284 284 284 284 284 283 283 282 282 282 282 282 282 281 280 279 279 278 277 277 277 277 276 276 275 275 276 277 278 278 280 281 281 281 283 284 286 287 288 290 291 292 292 292 291 291 291 292 293 293 291 291 290 290 290 290 290
275 275 276 275 274 275 274 273 275 277 276 276 280 284 285 281 278 279 282 283 284 285 286 284 283 284 285 285 285 285 285 285 286 285 284 283 282 281 281 281 281 280 279 279 278 277 276 277 277 277 277 277 277 276 276 277 278 279 279 280 280 281 282 283 285 286 287 289 290 291 291 291 291 291 292 292 293 293 292 291 291 291 291 291 291 291
274 274 276 277 276 276 274 271 273 277 278 280 284 284 282 280 280 282 283 283 284 285 285 283 283 284 284 284 284 284 283 284 284 284 283 282 281 281 281 281 280 279 278 277 277 276 276 277 277 278 278 278 278 278 278 278 279 279 280 280 279 280 281 283 284 285 287 288 289 290 290 291 291 292 292 293 293 292 291 291 291 292 292 292 292 292
275 273 274 276 276 275 273 273 276 279 279 283 286 284 281 281 281 281 283 284 284 284 284 283 283 284 284 284 284 283 283 283 283 283 283 282 281 281 281 281 280 279 277 276 276 276 277 277 278 278 279 279 279 279 279 278 278 279 279 279 279 280 281 282 283 284 286 287 287 288 290 291 292 292 292 292 292 292 292 292 292 293 293 293 293 292
275 275 274 276 277 277 276 277 281 283 282 284 286 283 281 282 282 282 284 285 284 284 284 284 284 285 285 285 285 284 283 283 283 283 283 281 281 280 280 280 280 279 277 276 276 277 278 278 279 279 279 280 280 279 279 278 278 278 279 278 278 279 280 281 282 283 285 286 287 289 291 292 292 292 292 292 293 293 293 293 293 294 294 293 293 292
277 278 277 276 277 279 279 279 281 283 283 284 285 283 281 281 282 283 284 285 285 285 285 284 284 284 285 285 284 284 284 283 283 283 283 282 281 281 280 279 278 277 276 276 276 278 279 280 279 279 280 281 281 280 280 279 279 278 278 278 278 279 280 280 282 284 285 286 287 290 291 291 292 292 293 294 294 294 294 294 294 295 294 294 294 295
278 280 280 277 276 277 278 280 281 282 282 282 283 283 282 282 282 283 284 285 285 285 284 284 284 284 284 284 284 284 284 284 283 283 283 282 281 281 281 279 278 276 275 275 276 279 280 281 280 281 283 284 283 282 281 280 279 280 280 279 279 280 280 281 284 285 286 287 289 291 292 292 292 293 294 295 295 295 295 295 295 295 295 296 296 297
277 279 279 279 279 279 280 282 283 283 282 282 282 282 283 283 284 285 285 285 285 284 284 283 284 284 284 284 284 285 285 284 283 282 282 282 282 281 281 280 277 275 274 274 276 279 280 280 280 282 284 286 286 285 283 281 282 283 282 280 279 279 281 284 286 287 288 289 290 292 293 293 293 293 294 295 295 295 295 295 295 296 297 298 299 300
277 278 279 279 280 280 281 282 283 283 283 282 282 283 283 284 285 285 285 285 285 284 284 285 285 285 284 284 285 285 285 284 284 283 283 283 282 281 280 279 277 273 271 271 274 276 276 277 280 283 286 289 289 287 285 284 284 284 282 279 280 282 285 286 287 288 289 291 292 293 294 294 293 293 293 294 295 296 296 296 297 298 298 300 302 304
275 276 277 277 278 279 281 281 281 282 283 283 284 284 284 284 285 285 285 285 284 284 284 285 286 286 285 284 285 285 285 285 285 284 284 283 282 281 279 277 273 269 268 270 273 274 274 276 281 285 288 290 290 289 288 287 286 285 282 281 283 286 287 287 288 290 292 294 294 296 296 295 293 292 293 293 295 297 298 298 299 300 301 303 305 306